Regional Weather Roundup
Issued by NWS Northern Indiana

Home | Current Version | Previous Version | Graphics & Text | Print | Product List | Glossary On
Versions: 1 2 3 4 5 6 7 8 9 10 11 12 13 14 15 16 17 18 19 20 21 22 23 24 25 26 27 28 29 30 31 32 33 34 35 36 37 38 39 40 41 42 43 44 45 46 47 48 49 50
000
ASUS43 KIWX 240710
RWRIWX

KIWX WEATHER ROUNDUP
NATIONAL WEATHER SERVICE NORTHERN INDIANA
300 AM EDT SUN JUL 24 2016

NOTE: "FAIR" INDICATES FEW OR NO CLOUDS BELOW 12,000 FEET WITH NO
SIGNIFICANT WEATHER AND/OR OBSTRUCTIONS TO VISIBILITY.

* THESE STATIONS ARE NOT UNDER NWS QUALITY CONTROL. THEY ALSO MAY NOT
  REPORT WEATHER SUCH AS PRECIPITATION OR FOG.

INZ001>027-240800-
NORTHERN INDIANA

CITY           SKY/WX    TMP DP  RH WIND       PRES   REMARKS
GARY*          RAIN      72  72 100 E6        29.95F
VALPARAISO     RAIN      71  69  93 N6        29.99F
MICHIGAN CITY* HVY RAIN  70  70 100 SW3       30.00F
LAPORTE*       CLOUDY   N/A N/A N/A W6        30.01F
KNOX*          CLOUDY    70  68  94 CALM      30.00F
SOUTH BEND     HVY RAIN  70  70 100 SW7       30.01F FOG
GOSHEN         TSTM      72  68  87 W15       30.02R FOG
MONTICELLO*    DRIZZLE   70  66  85 N8G16     30.00F
LOGANSPORT*    LGT RAIN  70  68  94 N5        30.03F
ROCHESTER*     TSTM      72  72 100 N7        30.02F
WARSAW*        HVY RAIN  70  70 100 W26       30.03R
ANGOLA*          N/A     75  68  78 CALM      29.98S
FORT WAYNE     CLOUDY    77  73  87 SW7       29.99R
HUNTINGTON*    CLOUDY   N/A N/A N/A W6        30.00R
PERU/GRISSOM   HVY RAIN  72  72 100 N9        30.02R
MARION*        CLOUDY    74  72  93 W5        30.01R FOG

$$
INZ028>050-240800-
CENTRAL INDIANA

CITY           SKY/WX    TMP DP  RH WIND       PRES   REMARKS
LAFAYETTE      CLOUDY    73  69  87 N10G21    30.01R
KOKOMO*        CLOUDY    75  66  73 NW26G35   30.04R
MUNCIE*        PTCLDY    80  73  79 SW5       30.00S
INDIANAPOLIS   PTCLDY    78  73  84 NW3       30.00S

$$
MIZ043>046-050>051-056>058-064>065-071>073-077>080-240800-
SOUTHWEST LOWER MICHIGAN

CITY           SKY/WX    TMP DP  RH WIND       PRES   REMARKS
BATTLE CREEK   CLOUDY    74  71  91 CALM      29.98F
BENTON HARBOR  RAIN      73  71  93 S6        29.97F FOG
COLDWATER*     CLOUDY    74  72  91 CALM      29.98S
HOLLAND        RAIN      71  68  90 S9        29.96S
GRAND RAPIDS   LGT RAIN  73  68  84 SW6       29.97F
KALAMAZOO      TSTM      76  71  85 W15G21    30.00R
STURGIS*       CLOUDY    74  73  94 CALM      29.97S
THREE RIVERS*  HVY RAIN  75  73  92 NW16      29.99R

$$
OHZ001>008-015>018-024>025-240800-
NORTHWEST OHIO

CITY           SKY/WX    TMP DP  RH WIND       PRES   REMARKS
WAUSEON*       FAIR      73  70  88 CALM      29.97F
DEFIANCE       CLOUDY    77  71  82 CALM      29.97S
FINDLAY        MOCLDY    75  69  81 SE3       29.97F
TOLEDO EXPRESS CLOUDY    75  71  87 CALM      29.97S
TOLEDO METCALF MOCLDY    77  69  76 E5        29.98R
LIMA           CLOUDY    75  73  93 S7        29.99S

$$
AND FOR LAKE MICHIGAN COASTAL AND OPEN LAKE BUOY OBSERVATIONS

STATION/POSITION TEMP    WIND        PRES    VSBY  WAVE
                 AIR SEA DIR/SP/G                  HT/PER
                 (F)     (DEG/KT/KT) (MB)    (MI)  (FT/S)
CALUMET HARBOR    70     100/  4/  5 1015.0F
MICHIGAN CITY     70     170/ 10/ 12   N/A
BURNS HARBOR      71     200/  8/ 17 1016.6F
SAINT JOSEPH      72     190/  7/ 12 1014.9F
SOUTH LAKE BUOY   72 72  180/ 12/ 16 1012.8F         1/ 3
4 MI NW BRIDGMAN  71 74  210/ 12/ 16 1014.6F         2/ 3
MICHIGAN CITY     71 73  220/ 10/ 14   N/A           2/ 4

$$
&&



USA.gov is the U.S. government's official web portal to all federal, state and local government web resources and services.